Location: Dal�� Lhota
(48.7500°N, 14.0167°E)
Time: 09:32:45
(UTC+00:00)

Explorer 7 - Pass Details

Date: 10 August 2021
Orbit: 484 x 676 km, 50.3° (Epoch: 21 September)

Event Time Altitude Azimuth Distance (km) Brightness Sun altitude
Rises 23:18:59 0° 193° (SSW) 2,557 - -25.9°
Reaches altitude 10° 23:22:10 10° 164° (SSE) 1,664 - -25.9°
Maximum altitude 23:23:53 13° 136° (SE) 1,494 - -25.9°
Drops below altitude 10° 23:25:36 10° 109° (ESE) 1,663 - -25.9°
Exits shadow 23:27:51 - 86° (E) 2,249 10.0 -25.9°
Sets 23:28:46 0° 80° (E) 2,553 10.4 -25.8°
